When you browse on this site, cookies collect data to enhance your experience and personalize the content and advertising you see.
Visit our Privacy Policy to learn more. By continuing to use the site, you agree to this use of cookies and data.
  • In Belgium
  • List of Countries
  • For 7 days
  • Water Temperature
  • Satellite Maps
  • Weather Map
  • Weather Widgets
  • user-avatar
    Login

    Hourly Weather Djelfa

    Today, 24 January, Thursday

    Time Temperature Precipitation Wind Pressure Humidity
    00:00 +1°C° 0 mm 15 mps 653 mmHg 85%
    01:00 +1°C° 0.1 mm 16 mps 653 mmHg 85%
    02:00 +1°C° 0.1 mm 17 mps 652 mmHg 86%
    03:00 +2°C° 0.1 mm 18 mps 652 mmHg 86%
    04:00 +2°C° 0.1 mm 18 mps 651 mmHg 85%
    05:00 +2°C° 0.1 mm 19 mps 651 mmHg 85%
    06:00 +2°C° 0.1 mm 19 mps 651 mmHg 84%
    07:00 +2°C° 0.2 mm 19 mps 651 mmHg 84%
    08:00 +1°C° 0.2 mm 19 mps 651 mmHg 83%
    09:00 +1°C° 0.2 mm 19 mps 651 mmHg 83%
    10:00 +2°C° 0.1 mm 19 mps 652 mmHg 77%
    11:00 +3°C° 0.1 mm 19 mps 652 mmHg 70%
    12:00 +3°C° 0.1 mm 20 mps 653 mmHg 64%
    13:00 +2°C° 0.6 mm 18 mps 653 mmHg 70%
    14:00 +1°C° 0.6 mm 16 mps 653 mmHg 76%
    15:00 -1°C° 0.6 mm 15 mps 653 mmHg 81%
    16:00 -1°C° 0.7 mm 14 mps 653 mmHg 80%
    17:00 -2°C° 0.7 mm 13 mps 654 mmHg 78%
    18:00 -2°C° 0.7 mm 12 mps 655 mmHg 76%
    19:00 -3°C° 0.1 mm 11 mps 655 mmHg 78%
    20:00 -3°C° 0.1 mm 10 mps 656 mmHg 80%
    21:00 -4°C° 0.1 mm 9 mps 656 mmHg 82%
    22:00 -4°C° 0 mm 9 mps 656 mmHg 84%
    23:00 -4°C° 0 mm 8 mps 656 mmHg 86%

    Tomorrow, 25 January, Friday

    Time Temperature Precipitation Wind Pressure Humidity
    00:00 -5°C° 0 mm 8 mps 657 mmHg 87%
    01:00 -5°C° 0 mm 8 mps 657 mmHg 87%
    02:00 -5°C° 0 mm 8 mps 657 mmHg 87%
    03:00 -5°C° 0 mm 9 mps 657 mmHg 87%
    04:00 -5°C° 0 mm 8 mps 657 mmHg 87%
    05:00 -5°C° 0 mm 8 mps 657 mmHg 87%
    06:00 -4°C° 0 mm 7 mps 657 mmHg 86%
    07:00 -4°C° 0 mm 8 mps 658 mmHg 81%
    08:00 -3°C° 0 mm 9 mps 659 mmHg 76%
    09:00 -2°C° 0 mm 10 mps 659 mmHg 72%
    10:00 -1°C° 0 mm 11 mps 659 mmHg 64%
    11:00 0°C° 0 mm 12 mps 660 mmHg 57%
    12:00 +2°C° 0 mm 12 mps 660 mmHg 49%
    13:00 +2°C° 0 mm 12 mps 660 mmHg 49%
    14:00 +2°C° 0 mm 12 mps 660 mmHg 48%
    15:00 +3°C° 0 mm 12 mps 660 mmHg 47%
    16:00 +2°C° 0 mm 11 mps 660 mmHg 52%
    17:00 +1°C° 0 mm 9 mps 660 mmHg 56%
    18:00 0°C° 0 mm 7 mps 660 mmHg 60%
    19:00 0°C° 0 mm 8 mps 660 mmHg 68%
    20:00 0°C° 0 mm 10 mps 661 mmHg 77%
    21:00 -1°C° 0 mm 11 mps 661 mmHg 86%
    22:00 -1°C° 0 mm 11 mps 661 mmHg 87%
    23:00 -1°C° 0 mm 11 mps 661 mmHg 89%

    Day after tomorrow, 26 January, Saturday

    Time Temperature Precipitation Wind Pressure Humidity
    00:00 -1°C° 0 mm 12 mps 661 mmHg 91%
    01:00 -1°C° 0 mm 12 mps 661 mmHg 92%
    02:00 -1°C° 0 mm 11 mps 661 mmHg 93%
    03:00 +1°C° 0 mm 11 mps 661 mmHg 94%
    04:00 -1°C° 0 mm 11 mps 661 mmHg 95%
    05:00 0°C° 0 mm 10 mps 662 mmHg 95%
    06:00 0°C° 0 mm 10 mps 662 mmHg 95%
    07:00 +1°C° 0 mm 10 mps 662 mmHg 92%
    08:00 +1°C° 0 mm 10 mps 663 mmHg 88%
    09:00 +2°C° 0 mm 10 mps 664 mmHg 85%
    10:00 +3°C° 0 mm 10 mps 664 mmHg 76%
    11:00 +5°C° 0 mm 10 mps 664 mmHg 68%
    12:00 +6°C° 0 mm 9 mps 664 mmHg 60%
    13:00 +6°C° 0 mm 9 mps 664 mmHg 58%
    14:00 +6°C° 0 mm 8 mps 664 mmHg 55%
    15:00 +6°C° 0 mm 8 mps 664 mmHg 53%
    16:00 +5°C° 0 mm 7 mps 664 mmHg 57%
    17:00 +4°C° 0 mm 6 mps 664 mmHg 61%
    18:00 +3°C° 0 mm 5 mps 664 mmHg 65%
    19:00 +4°C° 0 mm 4 mps 664 mmHg 67%
    20:00 +3°C° 0 mm 3 mps 664 mmHg 69%
    21:00 +3°C° 0 mm 2 mps 664 mmHg 71%
    22:00 +3°C° 0 mm 2 mps 664 mmHg 70%
    23:00 +3°C° 0 mm 2 mps 664 mmHg 68%

    27 January, Sunday

    Time Temperature Precipitation Wind Pressure Humidity
    00:00 +3°C° 0 mm 2 mps 664 mmHg 66%
    01:00 +2°C° 0 mm 3 mps 664 mmHg 67%
    02:00 +2°C° 0 mm 3 mps 663 mmHg 67%
    03:00 +2°C° 0 mm 3 mps 663 mmHg 68%
    04:00 +2°C° 0 mm 3 mps 663 mmHg 67%
    05:00 +2°C° 0 mm 3 mps 663 mmHg 66%
    06:00 +2°C° 0 mm 3 mps 663 mmHg 65%
    07:00 +3°C° 0 mm 4 mps 663 mmHg 59%
    08:00 +5°C° 0 mm 4 mps 664 mmHg 53%
    09:00 +6°C° 0 mm 5 mps 664 mmHg 47%
    10:00 +8°C° 0 mm 5 mps 664 mmHg 43%
    11:00 +9°C° 0 mm 6 mps 664 mmHg 39%
    12:00 +11°C° 0 mm 7 mps 663 mmHg 36%
    13:00 +11°C° 0 mm 7 mps 663 mmHg 34%
    14:00 +11°C° 0 mm 7 mps 662 mmHg 33%
    15:00 +12°C° 0 mm 7 mps 662 mmHg 32%
    16:00 +10°C° 0 mm 7 mps 661 mmHg 40%
    17:00 +9°C° 0 mm 6 mps 661 mmHg 47%
    18:00 +7°C° 0 mm 6 mps 661 mmHg 55%
    19:00 +7°C° 0 mm 6 mps 661 mmHg 63%
    20:00 +5°C° 0 mm 7 mps 661 mmHg 70%
    21:00 +4°C° 0 mm 7 mps 661 mmHg 78%
    22:00 +4°C° 0 mm 8 mps 661 mmHg 82%
    23:00 +3°C° 0 mm 9 mps 661 mmHg 85%

    28 January, Monday

    Time Temperature Precipitation Wind Pressure Humidity
    00:00 +2°C° 0 mm 10 mps 661 mmHg 89%
    01:00 +2°C° 0 mm 9 mps 660 mmHg 90%
    02:00 +1°C° 0 mm 8 mps 660 mmHg 92%
    03:00 +2°C° 0 mm 7 mps 660 mmHg 94%
    04:00 +2°C° 0.1 mm 7 mps 660 mmHg 92%
    05:00 0°C° 0.1 mm 8 mps 660 mmHg 90%
    06:00 0°C° 0.1 mm 8 mps 660 mmHg 88%
    07:00 0°C° 0 mm 8 mps 661 mmHg 83%
    08:00 0°C° 0 mm 9 mps 661 mmHg 78%
    09:00 0°C° 0 mm 9 mps 661 mmHg 73%
    10:00 +1°C° 0 mm 10 mps 661 mmHg 67%
    11:00 +1°C° 0 mm 11 mps 661 mmHg 62%
    12:00 +2°C° 0 mm 11 mps 661 mmHg 56%
    13:00 +2°C° 0 mm 12 mps 661 mmHg 55%
    14:00 +2°C° 0 mm 12 mps 661 mmHg 54%
    15:00 +2°C° 0 mm 12 mps 661 mmHg 53%
    16:00 0°C° 0 mm 12 mps 661 mmHg 55%
    17:00 +1°C° 0 mm 11 mps 661 mmHg 57%
    18:00 0°C° 0 mm 10 mps 661 mmHg 59%
    19:00 0°C° 0 mm 10 mps 662 mmHg 61%
    20:00 -2°C° 0 mm 10 mps 662 mmHg 64%
    21:00 -2°C° 0 mm 10 mps 662 mmHg 67%
    22:00 -2°C° 0 mm 10 mps 662 mmHg 71%
    23:00 -2°C° 0 mm 10 mps 662 mmHg 75%

    29 January, Tuesday

    Time Temperature Precipitation Wind Pressure Humidity
    00:00 -2°C° 0 mm 10 mps 661 mmHg 79%
    01:00 -2°C° 0.1 mm 11 mps 661 mmHg 81%
    02:00 -1°C° 0.1 mm 12 mps 662 mmHg 84%
    03:00 -1°C° 0.1 mm 12 mps 662 mmHg 86%
    04:00 -1°C° 0 mm 11 mps 662 mmHg 88%
    05:00 -1°C° 0 mm 11 mps 662 mmHg 90%
    06:00 -2°C° 0 mm 10 mps 662 mmHg 92%
    07:00 0°C° 0 mm 10 mps 662 mmHg 88%
    08:00 -1°C° 0 mm 11 mps 663 mmHg 85%
    09:00 +1°C° 0 mm 11 mps 663 mmHg 82%
    10:00 +2°C° 0 mm 12 mps 664 mmHg 75%
    11:00 +3°C° 0 mm 13 mps 664 mmHg 67%
    12:00 +3°C° 0 mm 13 mps 664 mmHg 59%
    13:00 +4°C° 0 mm 13 mps 664 mmHg 57%
    14:00 +4°C° 0 mm 14 mps 664 mmHg 54%
    15:00 +5°C° 0 mm 14 mps 664 mmHg 51%
    16:00 +4°C° 0 mm 12 mps 664 mmHg 56%
    17:00 +3°C° 0 mm 10 mps 664 mmHg 60%
    18:00 +2°C° 0 mm 9 mps 664 mmHg 64%
    19:00 +1°C° 0 mm 9 mps 665 mmHg 68%
    20:00 +1°C° 0 mm 9 mps 665 mmHg 72%
    21:00 0°C° 0 mm 10 mps 666 mmHg 76%
    22:00 0°C° 0 mm 9 mps 666 mmHg 77%
    23:00 -1°C° 0 mm 9 mps 666 mmHg 79%
    Show more